DW6780 Weather Reports


Display with metric or nautical units.
time (UTC)temp
F
wind
direction
speed
MPH
gust
MPH
rain 1hr
in
rain 24hr
in
rain mn
in
humidity
%
barometer
mb
20260506214541 63 349 0.0 0.0 0.00 0.00 0.00 81 1008.6
20260506213038 64 350 0.0 0.0 0.00 0.00 0.00 81 1008.6
20260506211537 65 350 0.0 0.0 0.00 0.00 0.00 79 1008.6
20260506210039 66 350 0.0 0.0 0.00 0.00 0.00 78 1008.7
20260506204535 67 350 0.0 0.0 0.00 0.00 0.00 78 1008.8
20260506203042 68 351 0.0 0.0 0.00 0.00 0.00 76 1008.9
20260506201534 70 351 0.0 0.0 0.00 0.00 0.00 76 1008.6
20260506200039 71 355 0.0 0.0 0.00 0.00 0.00 75 1008.6
20260506194532 70 355 0.0 0.0 0.00 0.00 0.00 79 1008.3
20260506193032 71 355 0.0 0.0 0.00 0.00 0.00 78 1008.2
20260506191533 72 355 0.0 0.0 0.00 0.00 0.00 77 1008.2
20260506190031 76 355 0.0 0.0 0.00 0.00 0.00 76 1008.4
20260506184531 76 355 0.0 0.0 0.00 0.00 0.00 76 1008.2
20260506183031 78 355 0.0 0.0 0.00 0.00 0.00 76 1008.1
20260506181535 77 355 0.0 0.0 0.00 0.00 0.00 74 1008.0
20260506180038 77 355 0.0 0.0 0.00 0.00 0.00 76 1008.0
20260506174530 75 355 0.0 0.0 0.00 0.00 0.00 79 1007.9
20260506173028 74 355 0.0 0.0 0.00 0.00 0.00 79 1007.8
20260506171543 72 355 0.0 0.0 0.00 0.00 0.00 82 1008.2
20260506170026 70 355 0.0 0.0 0.00 0.00 0.00 83 1007.9
20260506164526 68 355 0.0 0.0 0.00 0.00 0.00 84 1008.0
20260506163028 66 355 0.0 0.0 0.00 0.00 0.00 89 1008.5
20260506161536 64 355 0.0 0.0 0.00 0.00 0.00 90 1008.9
20260506160023 65 355 0.0 0.0 0.00 0.00 0.00 90 1009.3
20260506154519 66 355 0.0 0.0 0.00 0.00 0.00 89 1009.2
20260506153014 68 5 0.0 0.0 0.00 0.00 0.00 87 1008.9
20260506151510 70 5 0.0 0.0 0.00 0.00 0.00 84 1008.1
20260506150007 77 5 0.0 0.0 0.00 0.00 0.00 87 1007.7
20260506144504 78 5 0.0 0.0 0.00 0.00 0.00 88 1006.9
20260506143001 78 5 0.0 0.0 0.00 0.00 0.00 87 1006.6
20260506141559 77 5 0.0 0.0 0.00 0.00 0.00 89 1006.1
20260506140056 76 5 0.0 0.0 0.00 0.00 0.00 90 1006.6
20260506134616 76 5 0.0 0.0 0.00 0.00 0.00 91 1006.3
20260506133053 75 5 0.0 0.0 0.00 0.00 0.00 92 1006.1
20260506131607 75 5 0.0 0.0 0.00 0.00 0.00 92 1006.1
20260506130049 75 5 0.0 0.0 0.00 0.00 0.00 93 1005.8
20260506124548 75 5 0.0 0.0 0.00 0.00 0.00 93 1005.5
20260506123048 74 5 0.0 0.0 0.00 0.00 0.00 92 1005.4
20260506121546 75 5 0.0 0.0 0.00 0.00 0.00 92 1005.5
20260506120046 75 5 0.0 0.0 0.00 0.00 0.00 92 1005.6
20260506114551 75 5 0.0 0.0 0.00 0.00 0.00 92 1005.4
20260506113044 75 5 0.0 0.0 0.00 0.00 0.00 92 1005.6
20260506111552 75 5 0.0 0.0 0.00 0.00 0.00 92 1005.6
20260506110042 75 5 0.0 0.0 0.00 0.00 0.00 91 1005.5
20260506104542 75 5 0.0 0.0 0.00 0.00 0.00 91 1005.4
20260506103039 75 5 0.0 0.0 0.00 0.00 0.00 91 1005.2
20260506101539 75 5 0.0 0.0 0.00 0.00 0.00 91 1005.2
20260506100037 75 5 0.0 0.0 0.00 0.00 0.00 91 1005.0
20260506094536 75 5 0.0 0.0 0.00 0.00 0.00 91 1004.7
20260506093035 75 5 0.0 0.0 0.00 0.00 0.00 91 1004.6
20260506091535 75 5 0.0 0.0 0.00 0.00 0.00 91 1004.4
20260506090034 75 5 0.0 0.0 0.00 0.00 0.00 91 1004.2
20260506084533 75 5 0.0 0.0 0.00 0.00 0.00 91 1004.3
20260506083033 75 5 0.0 0.0 0.00 0.00 0.00 91 1004.3
20260506081537 75 5 0.0 0.0 0.00 0.00 0.00 91 1004.3
20260506073032 75 5 0.0 0.0 0.00 0.00 0.00 90 1004.7
20260506071532 75 5 0.0 0.0 0.00 0.00 0.00 90 1004.7
20260506061534 75 5 0.0 0.0 0.00 0.00 0.00 90 1004.8
20260506044520 76 5 0.0 0.0 0.00 0.00 0.00 90 1004.7
20260506043017 76 5 0.0 0.0 0.00 0.00 0.00 89 1004.7
20260506041517 76 5 0.0 0.0 0.00 0.00 0.00 89 1004.5
20260506040024 77 5 0.0 0.0 0.00 0.00 0.00 88 1004.4
20260506034517 77 5 0.0 0.0 0.00 0.00 0.00 88 1004.1
20260506033016 77 5 0.0 0.0 0.00 0.00 0.00 87 1004.2
20260506031521 78 5 0.0 0.0 0.00 0.00 0.00 86 1004.0
20260506030016 78 5 0.0 0.0 0.00 0.00 0.00 85 1003.8
20260506024529 78 5 0.0 0.0 0.00 0.00 0.00 84 1003.6
20260506023013 78 5 0.0 0.0 0.00 0.00 0.00 84 1003.4
20260506021513 79 5 0.0 0.0 0.00 0.00 0.00 83 1003.1
20260506020012 79 5 0.0 0.0 0.00 0.00 0.00 83 1002.7
20260506014515 79 5 0.0 0.0 0.00 0.00 0.00 82 1002.6
20260506013011 80 5 0.0 0.0 0.00 0.00 0.00 81 1002.6
20260506011520 81 5 0.0 0.0 0.00 0.00 0.00 80 1002.6
20260506010009 81 5 0.0 0.0 0.00 0.00 0.00 79 1002.6
20260506004509 82 5 0.0 0.0 0.00 0.00 0.00 78 1002.6
20260506003013 82 5 0.0 0.0 0.00 0.00 0.00 77 1002.6
20260506001509 82 5 0.0 0.0 0.00 0.00 0.00 76 1002.8
20260506000008 83 5 0.0 0.0 0.00 0.00 0.00 76 1002.6
20260505234517 83 5 0.0 0.0 0.00 0.00 0.00 75 1002.4
20260505233006 83 5 0.0 0.0 0.00 0.00 0.00 75 1002.3
20260505231507 83 5 0.0 0.0 0.00 0.00 0.00 74 1002.2
20260505230009 84 5 0.0 0.0 0.00 0.00 0.00 74 1002.3
20260505224506 84 5 0.0 0.0 0.00 0.00 0.00 74 1002.2
20260505223005 85 5 0.0 0.0 0.00 0.00 0.00 72 1002.1
20260505221504 85 5 0.0 0.0 0.00 0.00 0.00 72 1002.1
20260505220003 85 5 0.0 0.0 0.00 0.00 0.00 71 1002.1